ETH773 EGCC-LSGG

Flight info

Callsign ETH773
Flight time N/A
Altitude 35000
Route LISTO P18 TELBA L151 MID UL612 VEULE DCT PEKIM DCT PILUL DCT PIMUP DCT PIXIS DCT PIBAT DCT LUSAR
Aircraft B77W/H-SDE1E2E3FGHIJ2J3J4J5M1RWXY/LB1D1

Departure

Time 2026-05-01 14:12
Airport Manchester Airport (EGCC)

Arrival

Time N/A
Airport Geneva International Airport (LSGG)
Time Latitude Longitude Altitude Speed Heading
2026-05-01 13:39 53.36572 -2.27972 260 ft 0 kts 44°
2026-05-01 13:56 53.36566 -2.27982 260 ft 2 kts 44°
2026-05-01 13:56 53.36556 -2.27998 260 ft 2 kts 54°
2026-05-01 13:57 53.36549 -2.28021 260 ft 2 kts 70°
2026-05-01 13:57 53.36545 -2.28038 260 ft 2 kts 79°
2026-05-01 13:57 53.36546 -2.28073 260 ft 2 kts 101°
2026-05-01 13:57 53.36550 -2.28098 260 ft 2 kts 116°
2026-05-01 13:58 53.36562 -2.28125 260 ft 3 kts 123°
2026-05-01 13:58 53.36567 -2.28160 260 ft 3 kts 62°
2026-05-01 13:58 53.36552 -2.28188 260 ft 3 kts 44°
2026-05-01 13:58 53.36541 -2.28206 260 ft 0 kts 44°
2026-05-01 14:03 53.36557 -2.28151 260 ft 14 kts 86°
2026-05-01 14:03 53.36485 -2.28005 260 ft 16 kts 141°
2026-05-01 14:03 53.36421 -2.27934 260 ft 10 kts 165°
2026-05-01 14:03 53.36356 -2.27988 260 ft 11 kts 219°
2026-05-01 14:04 53.36288 -2.28065 260 ft 13 kts 201°
2026-05-01 14:04 53.36196 -2.28037 260 ft 15 kts 139°
2026-05-01 14:04 53.36117 -2.27924 260 ft 9 kts 141°
2026-05-01 14:04 53.36087 -2.27883 260 ft 9 kts 143°
2026-05-01 14:05 53.36039 -2.27826 260 ft 11 kts 140°
2026-05-01 14:05 53.35927 -2.27729 260 ft 22 kts 180°
2026-05-01 14:05 53.35811 -2.27710 257 ft 15 kts 151°
2026-05-01 14:05 53.35724 -2.27632 253 ft 15 kts 153°
2026-05-01 14:06 53.35632 -2.27537 251 ft 11 kts 141°
2026-05-01 14:06 53.35591 -2.27482 249 ft 4 kts 141°
2026-05-01 14:06 53.35588 -2.27478 249 ft 0 kts 141°
2026-05-01 14:07 53.35587 -2.27476 250 ft 2 kts 141°
2026-05-01 14:08 53.35362 -2.27197 250 ft 21 kts 167°
2026-05-01 14:08 53.35296 -2.27202 246 ft 0 kts 190°
2026-05-01 14:08 53.35288 -2.27204 245 ft 4 kts 190°
2026-05-01 14:08 53.35236 -2.27220 241 ft 10 kts 191°
2026-05-01 14:09 53.35182 -2.27238 237 ft 5 kts 191°
2026-05-01 14:09 53.35168 -2.27243 240 ft 0 kts 191°
2026-05-01 14:09 53.35162 -2.27245 239 ft 6 kts 191°
2026-05-01 14:10 53.35056 -2.27282 232 ft 17 kts 192°
2026-05-01 14:10 53.35000 -2.27343 230 ft 0 kts 229°
2026-05-01 14:11 53.34817 -2.27715 228 ft 103 kts 231°
2026-05-01 14:12 53.34126 -2.29158 588 ft 195 kts 232°
2026-05-01 14:12 53.33274 -2.30859 2491 ft 187 kts 229°
2026-05-01 14:12 53.32390 -2.32612 3665 ft 207 kts 230°
2026-05-01 14:12 53.31801 -2.34841 4518 ft 225 kts 259°
2026-05-01 14:13 53.31994 -2.37590 5188 ft 249 kts 279°
2026-05-01 14:13 53.32427 -2.40527 5234 ft 265 kts 275°
2026-05-01 14:13 53.32242 -2.43499 5690 ft 262 kts 241°
2026-05-01 14:13 53.31064 -2.45619 7058 ft 246 kts 207°
2026-05-01 14:14 53.29418 -2.46334 8101 ft 250 kts 177°
2026-05-01 14:14 53.27726 -2.45572 9117 ft 257 kts 159°
2026-05-01 14:14 53.26115 -2.44262 10231 ft 261 kts 155°
2026-05-01 14:14 53.24455 -2.42767 10900 ft 284 kts 154°
2026-05-01 14:15 53.22612 -2.41096 11187 ft 319 kts 154°
2026-05-01 14:15 53.20607 -2.39297 11999 ft 333 kts 154°
2026-05-01 14:15 53.18536 -2.37457 13120 ft 340 kts 154°
2026-05-01 14:15 53.16426 -2.35602 14270 ft 346 kts 154°
2026-05-01 14:16 53.14279 -2.33724 15361 ft 351 kts 154°
2026-05-01 14:16 53.12098 -2.31820 16435 ft 357 kts 154°
2026-05-01 14:16 53.09836 -2.29851 17521 ft 363 kts 154°
2026-05-01 14:16 53.07625 -2.27928 18526 ft 369 kts 154°
2026-05-01 14:17 53.05341 -2.25945 19437 ft 375 kts 154°
2026-05-01 14:17 53.02967 -2.24028 20324 ft 378 kts 161°
2026-05-01 14:17 53.00404 -2.22885 21173 ft 383 kts 172°
2026-05-01 14:17 52.97815 -2.22450 22128 ft 386 kts 179°
2026-05-01 14:18 52.95129 -2.22706 23113 ft 388 kts 186°
2026-05-01 14:18 52.92416 -2.23225 23976 ft 394 kts 187°
2026-05-01 14:18 52.89675 -2.23722 24718 ft 399 kts 186°
2026-05-01 14:18 52.87846 -2.24028 25231 ft 401 kts 186°
2026-05-01 14:19 52.84157 -2.24970 26218 ft 407 kts 193°
2026-05-01 14:19 52.81392 -2.26071 26962 ft 411 kts 193°
2026-05-01 14:19 52.78597 -2.27186 27657 ft 415 kts 193°
2026-05-01 14:19 52.75774 -2.28292 28343 ft 420 kts 193°
2026-05-01 14:20 52.72918 -2.29396 29010 ft 424 kts 193°
2026-05-01 14:20 52.67049 -2.30305 30092 ft 434 kts 172°
2026-05-01 14:20 52.64119 -2.29092 30750 ft 435 kts 163°
2026-05-01 14:21 52.61293 -2.27330 31480 ft 435 kts 159°
2026-05-01 14:21 52.58547 -2.25236 32202 ft 435 kts 155°
2026-05-01 14:21 52.55946 -2.22695 32853 ft 437 kts 149°
2026-05-01 14:22 52.50910 -2.17033 34072 ft 439 kts 147°
2026-05-01 14:22 52.48415 -2.14169 34651 ft 437 kts 147°
2026-05-01 14:22 52.45916 -2.11311 35111 ft 439 kts 147°
2026-05-01 14:22 52.43397 -2.08453 35138 ft 442 kts 148°
2026-05-01 14:23 52.38359 -2.02787 35137 ft 436 kts 148°
2026-05-01 14:23 52.33378 -1.97233 35130 ft 434 kts 148°
2026-05-01 14:24 52.28382 -1.91688 35141 ft 434 kts 148°
2026-05-01 14:24 52.23423 -1.86197 35139 ft 434 kts 148°
2026-05-01 14:25 52.18410 -1.80661 35135 ft 435 kts 148°
2026-05-01 14:25 52.13370 -1.75109 35135 ft 435 kts 148°
2026-05-01 14:26 52.05862 -1.66866 35134 ft 435 kts 148°
2026-05-01 14:27 52.00856 -1.61389 35130 ft 436 kts 148°
2026-05-01 14:27 51.95846 -1.55922 35131 ft 435 kts 148°
2026-05-01 14:28 51.88297 -1.47714 35132 ft 435 kts 148°
2026-05-01 14:28 51.83274 -1.42270 35122 ft 434 kts 148°
2026-05-01 14:29 51.78255 -1.36847 35127 ft 433 kts 148°
2026-05-01 14:30 51.70055 -1.31311 35130 ft 428 kts 173°
2026-05-01 14:30 51.67078 -1.30921 35142 ft 428 kts 178°
2026-05-01 14:31 51.58124 -1.30767 35129 ft 430 kts 180°
2026-05-01 14:31 51.52132 -1.30761 35123 ft 429 kts 177°
2026-05-01 14:31 51.49195 -1.29907 35125 ft 431 kts 161°
2026-05-01 14:32 51.46533 -1.27848 35136 ft 433 kts 149°
2026-05-01 14:32 51.41765 -1.21910 35143 ft 435 kts 143°
2026-05-01 14:33 51.37013 -1.15843 35139 ft 438 kts 143°
2026-05-01 14:33 51.32218 -1.09802 35150 ft 439 kts 143°
2026-05-01 14:34 51.27405 -1.03759 35158 ft 440 kts 143°
2026-05-01 14:34 51.22738 -0.97912 35157 ft 440 kts 143°
2026-05-01 14:35 51.17932 -0.91904 35145 ft 438 kts 143°
2026-05-01 14:35 51.13148 -0.85938 35150 ft 436 kts 143°
2026-05-01 14:36 51.08380 -0.80009 35160 ft 434 kts 143°
2026-05-01 14:36 51.03627 -0.74116 35163 ft 432 kts 143°
2026-05-01 14:37 50.98893 -0.68261 35186 ft 432 kts 143°
2026-05-01 14:37 50.94146 -0.62407 35194 ft 432 kts 144°
2026-05-01 14:38 50.89390 -0.56557 35203 ft 433 kts 144°
2026-05-01 14:38 50.84617 -0.50701 35208 ft 435 kts 143°
2026-05-01 14:39 50.79863 -0.44883 35211 ft 435 kts 144°
2026-05-01 14:39 50.75065 -0.39028 35207 ft 436 kts 144°
2026-05-01 14:40 50.70259 -0.33177 35211 ft 436 kts 144°
2026-05-01 14:40 50.65450 -0.27339 35208 ft 436 kts 144°
2026-05-01 14:41 50.60645 -0.21522 35208 ft 436 kts 143°
2026-05-01 14:41 50.55827 -0.15704 35206 ft 436 kts 144°
2026-05-01 14:42 50.51020 -0.09915 35206 ft 436 kts 144°
2026-05-01 14:42 50.46202 -0.04127 35205 ft 436 kts 144°
2026-05-01 14:43 50.41547 0.01451 35208 ft 435 kts 144°
2026-05-01 14:43 50.36739 0.07197 35205 ft 434 kts 143°
2026-05-01 14:44 50.31954 0.12901 35209 ft 432 kts 144°
2026-05-01 14:44 50.24803 0.21401 35210 ft 429 kts 144°
2026-05-01 14:45 50.17587 0.29572 35211 ft 429 kts 147°
2026-05-01 14:46 50.12548 0.34701 35212 ft 431 kts 148°
2026-05-01 14:46 50.04970 0.42409 35217 ft 434 kts 147°
2026-05-01 14:47 49.99977 0.47501 35229 ft 434 kts 147°
2026-05-01 14:48 49.92431 0.55179 35203 ft 430 kts 147°
2026-05-01 14:48 49.85048 0.62964 35206 ft 426 kts 142°
2026-05-01 14:49 49.76390 0.75505 35219 ft 427 kts 137°
2026-05-01 14:50 49.67688 0.88142 35223 ft 431 kts 138°
2026-05-01 14:51 49.61099 0.97645 35191 ft 432 kts 138°
2026-05-01 14:52 49.55395 1.05840 35190 ft 430 kts 138°
2026-05-01 14:53 49.48847 1.15213 35181 ft 428 kts 138°
2026-05-01 14:53 49.44476 1.21449 35185 ft 429 kts 138°
2026-05-01 14:54 49.40085 1.27699 35183 ft 431 kts 138°
2026-05-01 14:54 49.35671 1.33965 35189 ft 433 kts 138°
2026-05-01 14:55 49.31253 1.40222 35208 ft 431 kts 138°
2026-05-01 14:55 49.26848 1.46444 35184 ft 429 kts 138°
2026-05-01 14:56 49.22475 1.52606 35189 ft 427 kts 139°
2026-05-01 14:56 49.18106 1.58745 35199 ft 426 kts 139°
2026-05-01 14:57 49.13736 1.64871 35206 ft 427 kts 139°
2026-05-01 14:57 49.07148 1.74078 35213 ft 429 kts 139°
2026-05-01 14:58 49.02727 1.80236 35205 ft 432 kts 139°
2026-05-01 14:58 48.98293 1.86396 35225 ft 433 kts 139°
2026-05-01 14:59 48.93839 1.92571 35186 ft 433 kts 139°
2026-05-01 14:59 48.89415 1.98688 35206 ft 432 kts 139°
2026-05-01 15:00 48.82900 2.07668 35206 ft 431 kts 139°
2026-05-01 15:01 48.78464 2.13763 35217 ft 430 kts 139°
2026-05-01 15:01 48.74031 2.19840 35216 ft 430 kts 139°
2026-05-01 15:02 48.69595 2.25904 35219 ft 429 kts 139°
2026-05-01 15:02 48.65174 2.31934 35187 ft 427 kts 139°
2026-05-01 15:03 48.60770 2.37926 35179 ft 426 kts 139°
2026-05-01 15:03 48.56491 2.43734 35200 ft 427 kts 139°
2026-05-01 15:04 48.52047 2.49751 35200 ft 429 kts 139°
2026-05-01 15:04 48.47584 2.55779 35216 ft 432 kts 139°
2026-05-01 15:05 48.43095 2.61827 35218 ft 433 kts 140°
2026-05-01 15:05 48.38612 2.67855 35191 ft 432 kts 140°
2026-05-01 15:06 48.34147 2.73843 35209 ft 433 kts 140°
2026-05-01 15:06 48.29636 2.79879 35203 ft 434 kts 140°
2026-05-01 15:07 48.25002 2.85677 35221 ft 433 kts 144°
2026-05-01 15:07 48.20206 2.91151 35211 ft 433 kts 144°
2026-05-01 15:08 48.15405 2.96645 35217 ft 436 kts 144°
2026-05-01 15:08 48.10724 3.02007 35218 ft 438 kts 146°
2026-05-01 15:09 48.05486 3.06663 35217 ft 437 kts 157°
2026-05-01 15:09 47.99900 3.10181 35219 ft 436 kts 159°
2026-05-01 15:10 47.94298 3.13653 35203 ft 436 kts 159°
2026-05-01 15:10 47.85890 3.18913 35223 ft 438 kts 159°
2026-05-01 15:11 47.77441 3.24207 35220 ft 440 kts 159°
2026-05-01 15:12 47.71784 3.27743 35216 ft 442 kts 160°
2026-05-01 15:12 47.63236 3.33065 35231 ft 446 kts 160°
2026-05-01 15:14 47.48906 3.41944 35218 ft 446 kts 161°
2026-05-01 15:14 47.40303 3.47229 35219 ft 447 kts 161°
2026-05-01 15:15 47.28805 3.54273 35209 ft 449 kts 162°
2026-05-01 15:16 47.17172 3.61365 35222 ft 456 kts 162°
2026-05-01 15:18 47.02440 3.70304 35217 ft 458 kts 162°
2026-05-01 15:19 46.92331 3.81131 35215 ft 476 kts 118°
2026-05-01 15:19 46.88856 3.94665 35215 ft 479 kts 112°
2026-05-01 15:20 46.85377 4.08038 35206 ft 480 kts 113°
2026-05-01 15:21 46.82945 4.17135 35223 ft 480 kts 113°
2026-05-01 15:21 46.80598 4.26263 35221 ft 481 kts 109°
2026-05-01 15:22 46.78408 4.40534 35212 ft 481 kts 103°
2026-05-01 15:22 46.77064 4.50065 35185 ft 480 kts 103°
2026-05-01 15:23 46.76379 4.54798 34792 ft 485 kts 103°
2026-05-01 15:23 46.75663 4.59676 34305 ft 486 kts 104°
2026-05-01 15:23 46.74960 4.64432 33782 ft 483 kts 104°
2026-05-01 15:23 46.74249 4.69214 33253 ft 481 kts 104°
2026-05-01 15:24 46.73543 4.73950 32728 ft 478 kts 104°
2026-05-01 15:24 46.72834 4.78695 32217 ft 476 kts 104°
2026-05-01 15:24 46.72127 4.83413 31713 ft 474 kts 104°
2026-05-01 15:24 46.71422 4.88103 31213 ft 474 kts 104°
2026-05-01 15:25 46.70716 4.92789 30740 ft 473 kts 104°
2026-05-01 15:25 46.70011 4.97461 30253 ft 472 kts 104°
2026-05-01 15:25 46.69345 5.01856 29726 ft 470 kts 104°
2026-05-01 15:25 46.68641 5.06496 29171 ft 468 kts 104°
2026-05-01 15:26 46.67937 5.11121 28628 ft 466 kts 104°
2026-05-01 15:26 46.67234 5.15721 28103 ft 467 kts 105°
2026-05-01 15:26 46.66525 5.20362 27581 ft 467 kts 105°
2026-05-01 15:26 46.65841 5.24883 27076 ft 463 kts 105°
2026-05-01 15:27 46.65154 5.29443 26555 ft 458 kts 104°
2026-05-01 15:27 46.64463 5.34022 26047 ft 454 kts 104°
2026-05-01 15:27 46.63789 5.38468 25555 ft 449 kts 105°
2026-05-01 15:28 46.62456 5.47212 24602 ft 440 kts 105°
2026-05-01 15:28 46.61789 5.51536 24146 ft 436 kts 105°
2026-05-01 15:28 46.61121 5.55820 23662 ft 432 kts 105°
2026-05-01 15:29 46.59806 5.64213 22587 ft 425 kts 105°
2026-05-01 15:29 46.59151 5.68387 22064 ft 422 kts 105°
2026-05-01 15:29 46.57829 5.76632 21031 ft 412 kts 108°
2026-05-01 15:30 46.55520 5.82604 20205 ft 404 kts 133°
2026-05-01 15:31 46.46057 5.92531 18113 ft 378 kts 146°
2026-05-01 15:31 46.41770 5.96829 17059 ft 370 kts 146°
2026-05-01 15:32 46.37646 6.00734 16055 ft 357 kts 158°
2026-05-01 15:32 46.32852 6.01105 15302 ft 345 kts 195°
2026-05-01 15:33 46.27666 5.96119 14114 ft 341 kts 225°
2026-05-01 15:34 46.22716 5.88753 12546 ft 339 kts 224°